Dewpoint
66 67 69 71 72 72 71 71 71 70 69 67 70 69 70 71 72 71 70 71 70 70 71 70 69 71 71 69 70 69 68 69 66 66 68 68 70 70 69 70 73 73 71
68 68 69 71 72 72 72 71 71 70 69 66 67 65 67 70 71 71 71 71 69 69 70 70 70 70 70 70 71 70 70 70 69 67 69 69 69 69 70 70 68 69 70
69 68 69 69 71 72 71 72 71 70 70 68 67 65 65 69 72 72 71 70 71 70 69 70 70 70 69 69 70 69 69 70 70 69 68 70 69 70 69 66 66 68 66
67 68 68 68 69 70 71 71 72 71 69 70 68 67 69 71 71 72 72 72 72 71 71 71 71 71 69 68 69 70 69 69 69 69 69 69 69 68 68 67 67 68 68
65 66 67 67 68 68 68 68 71 72 72 72 71 71 72 71 71 71 71 71 71 71 71 71 72 72 70 70 71 71 71 70 69 69 68 67 67 66 67 68 67 68 68
64 65 66 66 66 67 67 68 68 69 71 71 72 72 72 74 68 67 71 71 71 71 70 70 70 71 71 69 68 68 69 69 68 67 66 65 65 65 67 67 67 66 66
60 60 62 64 63 64 66 66 67 67 68 68 70 70 71 72 67 65 65 67 70 71 71 70 70 70 69 70 68 67 65 65 66 66 64 64 64 65 66 65 65 66 67
56 57 58 61 62 63 64 64 65 67 67 68 67 68 68 71 65 64 65 67 67 67 68 70 71 71 70 69 70 70 71 71 67 66 66 66 66 66 66 66 67 68 69
53 54 55 56 57 59 61 63 64 64 65 66 67 67 67 68 63 63 64 68 69 69 69 69 70 70 68 66 70 70 70 71 69 65 64 64 64 64 66 69 68 68 67
52 53 54 54 54 55 55 59 62 61 62 63 65 66 65 67 63 61 63 68 68 70 70 71 65 66 60 59 67 69 69 69 69 71 72 68 66 67 64 68 69 68 67
51 52 52 52 52 52 53 55 56 58 61 61 60 62 65 66 66 61 60 67 68 69 70 71 69 58 56 56 56 63 64 64 64 66 67 70 71 71 70 69 69 69 68
49 49 50 50 52 52 52 53 53 53 56 58 59 58 57 56 58 56 56 57 61 65 65 66 64 55 53 54 58 61 58 59 63 65 65 65 66 67 70 72 71 70 70
48 48 48 49 49 49 49 50 50 51 52 53 57 58 54 55 57 56 55 56 57 60 61 61 56 54 53 56 58 59 59 63 64 64 66 67 66 66 66 68 69 71 71
46 47 48 48 48 48 48 49 49 48 48 49 49 48 55 54 54 56 59 57 56 58 60 59 57 56 55 57 58 63 65 67 67 67 67 67 67 67 66 66 66 67 67
46 47 47 48 48 48 48 47 47 47 48 46 45 47 52 51 52 51 53 55 54 53 54 56 56 56 56 56 59 62 65 68 69 69 69 68 68 67 67 67 66 66 66
43 44 45 45 46 47 47 47 46 45 44 43 42 44 45 46 45 44 44 44 43 47 55 54 55 55 55 58 60 63 65 65 67 69 69 69 69 69 68 68 68 67 67
41 42 43 44 45 45 44 44 44 45 45 44 43 43 43 43 42 41 41 42 43 46 53 53 54 54 57 61 61 62 63 64 65 67 68 69 69 70 69 69 69 69 69
42 44 42 42 43 43 43 44 44 43 44 45 45 45 44 42 42 42 40 42 47 47 52 53 54 58 57 57 57 56 56 57 60 63 65 68 69 69 69 68 69 68 67
42 42 43 42 42 43 42 42 41 43 44 44 45 45 45 44 44 42 41 47 49 51 54 54 56 55 54 55 53 54 56 57 56 59 62 64 66 67 68 68 67 60 61
39 42 42 40 40 40 41 41 41 41 41 42 43 45 46 45 47 48 50 53 52 53 54 54 53 52 53 52 52 52 52 52 54 55 57 60 62 65 65 67 67 66 65
38 38 41 38 39 40 40 40 40 39 39 39 40 42 43 44 46 46 51 50 51 51 51 51 51 49 50 50 49 49 51 51 51 52 54 55 58 58 61 63 65 66 66
37 36 35 35 36 37 38 38 38 38 37 37 38 39 41 43 44 47 49 48 49 50 50 49 48 48 48 48 47 47 47 48 48 49 50 51 52 53 55 58 60 63 64
36 34 34 34 35 36 36 36 36 36 36 37 37 37 37 40 45 46 47 49 47 46 47 47 46 46 46 45 45 45 44 45 46 46 46 46 46 48 51 54 57 58 60
36 34 34 34 34 35 34 35 35 36 35 35 35 36 36 38 38 40 42 46 46 45 44 45 45 44 44 44 43 43 42 43 43 41 40 41 42 44 48 51 54 58 60
35 35 35 34 34 34 34 34 34 34 34 34 35 36 36 37 37 37 40 43 44 44 43 42 43 42 41 39 39 38 37 34 35 35 37 38 40 42 45 48 51 55 58
36 37 37 36 35 35 36 35 35 34 34 35 35 35 35 36 38 38 40 41 42 42 42 42 41 40 37 37 37 35 32 31 33 33 35 36 39 43 47 49 52 55 58
Lifted_Index
-3 -3 -4 -4 -4 -4 -4 -4 -4 -4 -3 -3 -3 -3 -4 -4 -4 -4 -4 -4 -4 -4 -4 -4 -4 -4 -4 -4 -3 -4 -4 -4 -4 -4 -4 -4 -4 -4 -4 -5 -5 -5 -5
-2 -2 -3 -3 -4 -4 -4 -4 -4 -4 -3 -3 -3 -3 -4 -4 -4 -4 -4 -4 -4 -3 -3 -3 -3 -3 -3 -3 -3 -3 -3 -3 -4 -4 -4 -4 -4 -4 -4 -4 -4 -4 -3
-1 -1 -2 -3 -4 -4 -4 -4 -4 -4 -4 -3 -3 -3 -4 -4 -4 -4 -4 -4 -4 -4 -3 -3 -4 -3 -3 -3 -3 -3 -3 -3 -3 -4 -4 -4 -4 -4 -4 -3 -3 -2 -2
-0 -0 -1 -2 -3 -4 -4 -4 -4 -4 -4 -4 -4 -4 -4 -4 -4 -4 -4 -4 -4 -4 -3 -4 -4 -4 -4 -4 -3 -3 -3 -3 -3 -4 -4 -4 -4 -4 -3 -3 -2 -2 -2
-0 -1 -1 -2 -2 -3 -3 -3 -4 -4 -5 -5 -5 -4 -4 -4 -4 -4 -4 -4 -4 -4 -3 -4 -4 -4 -4 -4 -4 -4 -4 -3 -3 -3 -3 -3 -2 -2 -2 -2 -2 -2 -2
-1 -1 -1 -1 -1 -2 -2 -2 -3 -4 -5 -5 -5 -5 -5 -5 -5 -4 -4 -4 -4 -4 -4 -4 -3 -3 -4 -4 -4 -4 -4 -4 -3 -3 -3 -2 -1 -1 -2 -2 -2 -2 -2
-1 -1 -1 -1 -1 -0 -1 -1 -2 -3 -4 -4 -4 -5 -5 -5 -5 -5 -5 -4 -4 -4 -4 -4 -4 -4 -4 -3 -3 -3 -3 -3 -3 -3 -3 -2 -2 -2 -2 -2 -2 -2 -3
-1 -1 -0 -0 -0 -0 -0 -1 -1 -2 -3 -3 -4 -4 -4 -4 -4 -4 -4 -4 -4 -4 -4 -4 -4 -4 -4 -3 -3 -3 -3 -3 -3 -3 -3 -3 -3 -3 -4 -4 -3 -3 -3
2 2 2 2 1 1 1 0 1 0 -1 -2 -2 -3 -3 -3 -3 -4 -4 -4 -4 -3 -3 -3 -3 -4 -3 -3 -3 -3 -3 -3 -3 -3 -3 -4 -4 -4 -4 -4 -4 -4 -3
6 6 6 6 5 4 3 3 3 3 1 0 -0 -1 -2 -2 -2 -2 -3 -3 -3 -3 -3 -3 -3 -3 -3 -3 -3 -3 -3 -3 -3 -3 -3 -3 -4 -4 -4 -4 -4 -3 -3
9 9 9 9 9 8 8 7 6 6 4 4 3 2 1 1 0 -0 -1 -2 -2 -2 -3 -3 -3 -3 -3 -3 -3 -3 -3 -3 -2 -2 -2 -2 -3 -3 -3 -3 -3 -3 -3
11 11 11 11 11 11 10 10 9 8 7 7 6 5 4 4 3 3 2 1 -0 -1 -2 -2 -2 -2 -2 -2 -2 -2 -2 -2 -2 -2 -2 -2 -2 -2 -2 -2 -2 -2 -2
12 12 12 11 11 11 11 11 11 10 9 8 7 6 6 5 5 5 5 5 4 2 1 1 0 0 -0 -1 -1 -1 -1 -1 -1 -1 -1 -1 -2 -2 -2 -2 -2 -2 -2
13 12 12 11 11 11 11 11 11 11 11 10 9 8 7 7 7 7 7 7 7 6 6 5 4 4 3 2 2 1 1 -0 -0 -1 -1 -1 -1 -1 -1 -1 -1 -1 -1
13 13 12 12 11 11 11 11 11 11 11 11 10 10 9 8 8 8 8 9 9 8 8 7 7 7 6 5 4 3 2 1 0 -0 -1 -1 -1 -1 -1 -1 -1 -1 -1
13 13 13 12 12 12 12 12 12 12 12 12 11 10 9 9 9 9 9 9 9 9 8 8 8 8 7 6 5 4 3 2 1 0 -1 -1 -1 -1 -1 -1 -2 -2 -2
13 13 13 13 13 12 12 12 12 12 12 12 12 11 10 9 9 9 9 9 9 9 9 9 8 7 7 7 6 6 5 4 3 1 0 -1 -1 -2 -2 -2 -2 -2 -2
12 12 12 13 13 13 13 13 13 12 12 12 12 11 11 10 9 9 9 9 9 9 9 8 8 7 7 7 8 8 8 8 6 4 2 0 -1 -1 -1 -1 -1 -1 -1
12 12 12 12 13 13 13 13 12 12 12 12 12 11 11 11 10 10 9 9 9 8 8 7 7 6 7 7 8 9 10 10 9 7 5 3 1 1 0 -0 -0 -0 -0
12 12 12 12 12 12 12 12 12 12 12 12 12 11 11 11 11 10 9 8 8 7 7 6 6 6 6 7 8 9 10 11 11 10 8 6 4 2 1 1 1 0 0
12 12 12 12 12 12 12 12 12 12 12 12 12 12 11 11 10 10 9 8 7 7 6 6 6 6 7 8 8 9 10 11 11 11 10 8 6 5 3 2 1 1 1
11 11 12 12 12 13 13 13 13 13 13 12 12 12 12 11 11 10 9 8 7 7 7 7 7 7 8 8 9 9 9 10 11 11 11 10 8 7 4 3 2 2 2
11 11 11 12 12 13 13 14 14 14 14 14 13 13 13 12 12 11 10 9 9 8 8 8 7 8 8 9 10 10 10 10 11 11 11 10 9 8 6 4 3 2 2
9 10 11 11 12 12 13 14 14 14 15 15 15 15 14 14 14 13 12 12 11 10 10 9 9 9 9 10 10 10 10 10 10 11 10 10 9 8 6 5 3 3 2
8 9 10 11 11 12 13 13 14 15 15 15 16 16 16 16 16 15 14 14 13 12 12 11 10 10 10 10 10 10 10 10 10 10 10 9 8 7 6 5 3 2 2
8 9 10 10 11 11 12 13 14 15 15 15 16 16 17 17 16 16 16 15 15 14 13 12 11 11 11 10 10 10 10 10 10 10 9 9 8 6 5 4 3 2 2